Fremont, MI

8:20 AM EDT on October 15, 2019 (GMT -0400)
Fremont

Weather History for KFFX - August, 2019

Change the Weather History Date:

Sunday, August 11, 2019

  Actual Average (KMKG) Record (KMKG)
Temperature  
Mean Temperature 68 °F -  
Max Temperature 82 °F 76 °F 91 °F (1947)
Min Temperature 54 °F 57 °F 47 °F (1965)
Cooling Degree Days 3    
Growing Degree Days 18 (Base 50)    
Moisture  
Dew Point 58 °F    
Average Humidity 73    
Maximum Humidity 100    
Minimum Humidity 40    
Precipitation  
Precipitation 0.00 in - - ()
Sea Level Pressure  
Sea Level Pressure 30.01 in    
Wind  
Wind Speed 2 mph (South)    
Max Wind Speed 13 mph    
Max Gust Speed 17 mph    
Visibility 10 miles    
Events Rain    
Averages and records for this station are not official NWS values.
T = Trace of Precipitation, MM = Missing Value Source: NWS Daily Summary

Daily Weather History Graph

Daily Weather History Graph

Search for Another Location

Airport or City:

Astronomy

Aug. 11, 2019 Rise Set
Actual Time 6:44 AM EDT 8:53 PM EDT
Civil Twilight 6:12 AM EDT 9:24 PM EDT
Nautical Twilight 5:34 AM EDT 10:03 PM EDT
Astronomical Twilight 4:51 AM EDT 10:45 PM EDT
Moon 6:36 PM EDT (8/11) 3:00 AM EDT (8/11)
Length of Visible Light 15h 11m
Length of Day
14h 09m
Waxing Gibbous, 87% of the Moon is Illuminated
Aug 11
Waxing Gibbous
Aug 15
Full
Aug 23
Last Quarter
Aug 30
New
Sep 5
First Quarter

Hourly Weather History & Observations

Time (EDT) Temp. Heat Index Dew Point Humidity Pressure Visibility Wind Dir Wind Speed Gust Speed Precip Events Conditions
12:19 AM 56.8 °F - 56.7 °F 99% 30.01 in 10.0 mi Calm Calm - N/A   Clear
12:37 AM 56.5 °F - 55.9 °F 98% 30.02 in 10.0 mi Calm Calm - N/A   Clear
12:55 AM 55.9 °F - 55.9 °F 100% 30.02 in 10.0 mi Calm Calm - N/A   Clear
12:56 AM 55.8 °F - 55.8 °F 100% 30.02 in 10.0 mi Calm Calm - N/A   Clear
1:15 AM 55.6 °F - 55.6 °F 100% 30.03 in 10.0 mi Calm Calm - N/A   Clear
1:35 AM 56.1 °F - 56.1 °F 100% 30.03 in 10.0 mi Calm Calm - N/A   Clear
1:58 AM 55.9 °F - 55.9 °F 100% 30.03 in 10.0 mi Calm Calm - N/A   Clear
2:16 AM 54.7 °F - 54.7 °F 100% 30.03 in 10.0 mi Calm Calm - N/A   Clear
2:35 AM 55.4 °F - 55.4 °F 100% 30.03 in 7.0 mi Calm Calm - N/A   Clear
2:36 AM 55.6 °F - 55.6 °F 100% 30.03 in 7.0 mi Calm Calm - N/A   Clear
2:55 AM 55.8 °F - 55.8 °F 100% 30.03 in 10.0 mi Calm Calm - N/A   Clear
2:56 AM 55.9 °F - 55.9 °F 100% 30.03 in 10.0 mi Calm Calm - N/A   Clear
3:19 AM 55.9 °F - 55.9 °F 100% 30.02 in 10.0 mi Calm Calm - N/A   Clear
3:37 AM 54.5 °F - 54.5 °F 100% 30.03 in 10.0 mi Calm Calm - N/A   Clear
3:55 AM 54.7 °F - 54.7 °F 100% 30.02 in 10.0 mi ENE 3.5 mph - N/A   Clear
3:56 AM 54.7 °F - 54.7 °F 100% 30.02 in 10.0 mi Calm Calm - N/A   Clear
4:15 AM 54.9 °F - 54.9 °F 100% 30.03 in 10.0 mi Calm Calm - N/A   Clear
4:16 AM 54.9 °F - 54.9 °F 100% 30.03 in 10.0 mi Calm Calm - N/A   Clear
4:35 AM 54.1 °F - 54.1 °F 100% 30.04 in 10.0 mi Calm Calm - N/A   Clear
4:40 AM 54.3 °F - 54.3 °F 100% 30.04 in 10.0 mi Calm Calm - N/A   Scattered Clouds
4:58 AM 55.6 °F - 55.6 °F 100% 30.04 in 10.0 mi Calm Calm - N/A   Mostly Cloudy
5:16 AM 56.5 °F - 56.5 °F 100% 30.03 in 10.0 mi Calm Calm - N/A   Overcast
5:35 AM 58.1 °F - 58.1 °F 100% 30.04 in 10.0 mi Calm Calm - N/A   Overcast
5:55 AM 57.7 °F - 57.7 °F 100% 30.03 in 10.0 mi Calm Calm - N/A   Overcast
5:56 AM 57.7 °F - 57.7 °F 100% 30.03 in 10.0 mi Calm Calm - N/A   Overcast
6:19 AM 57.7 °F - 57.7 °F 100% 30.05 in 10.0 mi Calm Calm - N/A   Overcast
6:37 AM 58.1 °F - 58.1 °F 100% 30.05 in 10.0 mi Calm Calm - N/A   Mostly Cloudy
6:55 AM 58.1 °F - 58.1 °F 100% 30.05 in 7.0 mi Calm Calm - N/A Rain Rain
7:15 AM 58.5 °F - 58.5 °F 100% 30.04 in 10.0 mi East 3.5 mph - N/A   Overcast
7:35 AM 59.0 °F - 59.0 °F 100% 30.05 in 10.0 mi Calm Calm - N/A   Overcast
7:58 AM 59.7 °F - 59.7 °F 100% 30.05 in 10.0 mi Calm Calm - N/A   Mostly Cloudy
8:16 AM 60.8 °F - 60.4 °F 99% 30.05 in 10.0 mi Calm Calm - N/A   Scattered Clouds
8:35 AM 63.3 °F - 59.2 °F 86% 30.05 in 10.0 mi ESE 3.5 mph - N/A   Scattered Clouds
8:55 AM 65.3 °F - 58.6 °F 79% 30.05 in 10.0 mi SE 3.5 mph - N/A   Mostly Cloudy
9:19 AM 66.7 °F - 56.7 °F 70% 30.05 in 10.0 mi Calm Calm - N/A   Overcast
9:37 AM 67.1 °F - 58.3 °F 73% 30.06 in 10.0 mi Calm Calm - N/A   Mostly Cloudy
9:55 AM 68.4 °F - 56.7 °F 66% 30.05 in 10.0 mi SSW 3.5 mph - N/A   Mostly Cloudy
10:15 AM 68.9 °F - 57.4 °F 67% 30.05 in 10.0 mi Calm Calm - N/A   Overcast
10:35 AM 69.8 °F - 56.8 °F 63% 30.05 in 10.0 mi SSE 4.6 mph - N/A   Overcast
10:40 AM 69.8 °F - 55.9 °F 61% 30.05 in 10.0 mi South 4.6 mph - N/A   Overcast
10:58 AM 69.8 °F - 56.1 °F 62% 30.05 in 10.0 mi South 4.6 mph - N/A   Overcast
11:16 AM 69.4 °F - 57.0 °F 65% 30.05 in 10.0 mi South 3.5 mph - N/A   Overcast
11:35 AM 71.2 °F - 57.4 °F 61% 30.05 in 10.0 mi SSE 4.6 mph - N/A   Overcast
11:55 AM 74.1 °F - 55.4 °F 52% 30.04 in 10.0 mi SSE 3.5 mph - N/A   Overcast
12:19 PM 74.1 °F - 55.6 °F 52% 30.04 in 10.0 mi SSE 3.5 mph - N/A   Overcast
12:37 PM 75.2 °F - 56.5 °F 52% 30.03 in 10.0 mi SE 4.6 mph - N/A   Overcast
12:55 PM 75.7 °F - 56.7 °F 51% 30.03 in 10.0 mi ESE 3.5 mph - N/A   Overcast
12:56 PM 75.6 °F - 56.5 °F 51% 30.03 in 10.0 mi SE 3.5 mph - N/A   Overcast
1:35 PM 78.1 °F - 57.0 °F 48% 30.03 in 10.0 mi SE 3.5 mph - N/A   Mostly Cloudy
1:58 PM 79.0 °F - 56.7 °F 46% 30.03 in 10.0 mi SSW 9.2 mph - N/A   Overcast
2:16 PM 79.3 °F - 57.6 °F 47% 30.02 in 10.0 mi SSW 6.9 mph - N/A   Overcast
2:35 PM 80.4 °F 80.7 °F 57.0 °F 45% 30.02 in 10.0 mi SSW 9.2 mph - N/A   Overcast
2:55 PM 80.4 °F 80.8 °F 58.1 °F 46% 30.01 in 10.0 mi WSW 6.9 mph - N/A   Mostly Cloudy
3:19 PM 80.6 °F 80.9 °F 57.9 °F 46% 30.00 in 10.0 mi Calm Calm - N/A   Scattered Clouds
3:37 PM 81.9 °F 81.3 °F 55.6 °F 40% 30.00 in 10.0 mi SW 4.6 mph - N/A   Clear
3:55 PM 82.2 °F 82.0 °F 57.4 °F 43% 30.00 in 10.0 mi SW 8.1 mph - N/A   Mostly Cloudy
3:56 PM 81.9 °F 81.7 °F 57.4 °F 43% 29.99 in 10.0 mi SW 8.1 mph - N/A   Mostly Cloudy
4:15 PM 81.0 °F 81.6 °F 59.9 °F 49% 29.99 in 10.0 mi SSW 12.7 mph - N/A   Mostly Cloudy
4:16 PM 81.3 °F 81.8 °F 59.9 °F 48% 29.99 in 10.0 mi SSW 11.5 mph - N/A   Mostly Cloudy
4:35 PM 81.0 °F 81.6 °F 60.3 °F 49% 29.98 in 10.0 mi SW 5.8 mph - N/A   Mostly Cloudy
4:58 PM 79.7 °F - 58.6 °F 48% 29.98 in 10.0 mi WSW 12.7 mph 17.3 mph N/A   Mostly Cloudy
5:16 PM 79.3 °F - 58.1 °F 48% 29.98 in 10.0 mi SW 11.5 mph - N/A   Mostly Cloudy
5:35 PM 79.2 °F - 56.5 °F 46% 29.98 in 10.0 mi SW 10.4 mph - N/A   Overcast
5:36 PM 79.2 °F - 56.5 °F 46% 29.98 in 10.0 mi SW 8.1 mph 11.5 mph N/A   Overcast
5:55 PM 78.8 °F - 57.2 °F 47% 29.98 in 10.0 mi SSW 6.9 mph - N/A   Overcast
6:19 PM 78.1 °F - 56.5 °F 47% 29.97 in 10.0 mi SSW 9.2 mph - N/A   Overcast
6:37 PM 77.5 °F - 56.5 °F 48% 29.97 in 10.0 mi SW 5.8 mph - N/A   Overcast
6:55 PM 76.6 °F - 57.4 °F 51% 29.97 in 10.0 mi SSW 4.6 mph - N/A   Overcast
6:56 PM 76.5 °F - 57.0 °F 51% 29.97 in 10.0 mi SW 5.8 mph - N/A   Overcast
7:15 PM 76.3 °F - 57.9 °F 53% 29.96 in 10.0 mi SSW 4.6 mph - N/A   Overcast
7:35 PM 75.6 °F - 57.7 °F 54% 29.96 in 10.0 mi SSW 3.5 mph - N/A   Overcast
7:40 PM 75.6 °F - 57.6 °F 53% 29.96 in 10.0 mi SSW 4.6 mph - N/A   Overcast
7:58 PM 75.2 °F - 57.9 °F 55% 29.96 in 10.0 mi Calm Calm - N/A   Overcast
8:16 PM 74.7 °F - 58.6 °F 57% 29.96 in 10.0 mi Calm Calm - N/A   Overcast
8:35 PM 74.7 °F - 58.6 °F 57% 29.96 in 10.0 mi Calm Calm - N/A   Overcast
8:55 PM 72.5 °F - 60.3 °F 65% 29.96 in 10.0 mi Calm Calm - N/A   Overcast
8:56 PM 72.5 °F - 60.3 °F 65% 29.96 in 10.0 mi Calm Calm - N/A   Overcast
9:19 PM 72.0 °F - 61.2 °F 69% 29.95 in 10.0 mi Calm Calm - N/A   Overcast
9:37 PM 72.7 °F - 60.1 °F 64% 29.95 in 10.0 mi Calm Calm - N/A   Overcast
9:55 PM 71.8 °F - 62.6 °F 73% 29.96 in 10.0 mi Calm Calm - N/A   Overcast
10:15 PM 71.6 °F - 61.5 °F 70% 29.96 in 10.0 mi Calm Calm - N/A   Overcast
10:16 PM 71.4 °F - 61.5 °F 71% 29.96 in 10.0 mi Calm Calm - N/A   Overcast
10:35 PM 71.6 °F - 62.2 °F 72% 29.95 in 10.0 mi Calm Calm - N/A   Overcast
10:40 PM 71.2 °F - 61.9 °F 72% 29.95 in 10.0 mi Calm Calm - N/A   Overcast
10:58 PM 70.7 °F - 62.1 °F 74% 29.95 in 10.0 mi Calm Calm - N/A   Overcast
11:16 PM 70.7 °F - 62.2 °F 75% 29.95 in 10.0 mi Calm Calm - N/A   Overcast
11:35 PM 71.4 °F - 62.6 °F 74% 29.95 in 10.0 mi Calm Calm - N/A   Overcast
11:55 PM 70.3 °F - 63.0 °F 77% 29.95 in 10.0 mi Calm Calm - N/A   Overcast